"Period start","avg(HW err(1)/warn(2) (#))","avg(Visibility (m))","avg(Weather code (#))","avg(Precip intensity (mm/h))","min(HW err(1)/warn(2) (#))","max(HW err(1)/warn(2) (#))","std(HW err(1)/warn(2) (#))","med(HW err(1)/warn(2) (#))","min(Visibility (m))","max(Visibility (m))","std(Visibility (m))","med(Visibility (m))","min(Weather code (#))","max(Weather code (#))","std(Weather code (#))","med(Weather code (#))","min(Precip intensity (mm/h))","max(Precip intensity (mm/h))","std(Precip intensity (mm/h))","med(Precip intensity (mm/h))"
2016-09-26 00:00:00,2,48792,0,0.00,2,2,0,2,44966,50000,1698,49822,0,0,0,0,0.00,0.00,0.00,0.00
2016-09-26 00:10:00,2,46761,0,0.00,2,2,0,2,37405,50000,4174,48604,0,0,0,0,0.00,0.00,0.00,0.00
2016-09-26 00:20:00,2,43166,0,0.00,2,2,0,2,33439,46487,3509,44198,0,0,0,0,0.00,0.00,0.00,0.00
2016-09-26 00:30:00,2,43393,0,0.00,2,2,0,2,36308,50000,5356,41499,0,0,0,0,0.00,0.00,0.00,0.00
2016-09-26 00:40:00,2,47708,0,0.00,2,2,0,2,42426,50000,2750,49588,0,0,0,0,0.00,0.00,0.00,0.00
2016-09-26 00:50:00,2,47367,0,0.00,2,2,0,2,37187,50000,3770,48894,0,0,0,0,0.00,0.00,0.00,0.00
2016-09-26 01:00:00,2,41159,0,0.00,2,2,0,2,29861,50000,6700,42462,0,0,0,0,0.00,0.00,0.00,0.00
2016-09-26 01:10:00,2,47436,0,0.00,2,2,0,2,34725,50000,4506,49544,0,0,0,0,0.00,0.00,0.00,0.00
2016-09-26 01:20:00,2,39481,0,0.00,2,2,0,2,31285,49842,6148,36850,0,0,0,0,0.00,0.00,0.00,0.00
2016-09-26 01:30:00,2,42050,0,0.00,2,2,0,2,32979,50000,5848,40881,0,0,0,0,0.00,0.00,0.00,0.00
2016-09-26 01:40:00,2,37934,0,0.00,2,2,0,2,17021,50000,11895,40084,0,0,0,0,0.00,0.00,0.00,0.00
2016-09-26 01:50:00,2,38089,0,0.00,2,2,0,2,29556,50000,7496,36248,0,0,0,0,0.00,0.00,0.00,0.00
2016-09-26 02:00:00,2,40720,0,0.00,2,2,0,2,32532,50000,6518,39097,0,0,0,0,0.00,0.00,0.00,0.00
2016-09-26 02:10:00,2,39660,0,0.00,2,2,0,2,21236,50000,11128,44272,0,0,0,0,0.00,0.00,0.00,0.00
2016-09-26 02:20:00,2,37095,0,0.00,2,2,0,2,23116,46183,6145,38153,0,0,0,0,0.00,0.00,0.00,0.00
2016-09-26 02:30:00,2,39472,0,0.00,2,2,0,2,20370,50000,9340,40152,0,0,0,0,0.00,0.00,0.00,0.00
2016-09-26 02:40:00,2,45998,0,0.00,2,2,0,2,38804,50000,3754,47209,0,0,0,0,0.00,0.00,0.00,0.00
2016-09-26 02:50:00,2,39073,0,0.00,2,2,0,2,30994,48086,5262,40127,0,0,0,0,0.00,0.00,0.00,0.00
2016-09-26 03:00:00,2,46753,0,0.00,2,2,0,2,36201,50000,5201,49871,0,0,0,0,0.00,0.00,0.00,0.00
2016-09-26 03:10:00,2,45120,0,0.00,2,2,0,2,33532,50000,5738,48214,0,0,0,0,0.00,0.00,0.00,0.00
2016-09-26 03:20:00,2,41491,0,0.00,2,2,0,2,32572,50000,6773,39727,0,0,0,0,0.00,0.00,0.00,0.00
2016-09-26 03:30:00,2,43225,0,0.00,2,2,0,2,34084,49662,4166,43028,0,0,0,0,0.00,0.00,0.00,0.00
2016-09-26 03:40:00,2,44497,0,0.00,2,2,0,2,26331,50000,8053,49028,0,0,0,0,0.00,0.00,0.00,0.00
2016-09-26 03:50:00,2,41068,0,0.00,2,2,0,2,28980,50000,7377,41336,0,0,0,0,0.00,0.00,0.00,0.00
2016-09-26 04:00:00,2,49881,0,0.00,2,2,0,2,48813,50000,356,50000,0,0,0,0,0.00,0.00,0.00,0.00
2016-09-26 04:10:00,2,41829,0,0.00,2,2,0,2,27588,50000,8005,42064,0,0,0,0,0.00,0.00,0.00,0.00
2016-09-26 04:20:00,2,47022,0,0.00,2,2,0,2,41201,50000,3292,48112,0,0,0,0,0.00,0.00,0.00,0.00
2016-09-26 04:30:00,2,42575,0,0.00,2,2,0,2,33296,50000,5531,41189,0,0,0,0,0.00,0.00,0.00,0.00
2016-09-26 04:40:00,2,45722,0,0.00,2,2,0,2,38375,50000,4646,48330,0,0,0,0,0.00,0.00,0.00,0.00
2016-09-26 04:50:00,2,46439,0,0.00,2,2,0,2,39003,50000,3732,46904,0,0,0,0,0.00,0.00,0.00,0.00
2016-09-26 05:00:00,2,47514,0,0.00,2,2,0,2,40585,50000,3162,49607,0,0,0,0,0.00,0.00,0.00,0.00
2016-09-26 05:10:00,2,48951,0,0.00,2,2,0,2,43977,50000,1928,50000,0,0,0,0,0.00,0.00,0.00,0.00
2016-09-26 05:20:00,2,49881,0,0.00,2,2,0,2,48811,50000,357,50000,0,0,0,0,0.00,0.00,0.00,0.00
2016-09-26 05:30:00,2,49974,0,0.00,2,2,0,2,49742,50000,77,50000,0,0,0,0,0.00,0.00,0.00,0.00
2016-09-26 05:40:00,2,49353,0,0.00,2,2,0,2,45456,50000,1355,50000,0,0,0,0,0.00,0.00,0.00,0.00
2016-09-26 05:50:00,2,47477,0,0.00,2,2,0,2,39202,50000,3674,49204,0,0,0,0,0.00,0.00,0.00,0.00
2016-09-26 06:00:00,2,48364,0,0.00,2,2,0,2,40107,50000,3035,50000,0,0,0,0,0.00,0.00,0.00,0.00
2016-09-26 06:10:00,2,49826,0,0.00,2,2,0,2,48256,50000,523,50000,0,0,0,0,0.00,0.00,0.00,0.00
2016-09-26 06:20:00,2,49846,0,0.00,2,2,0,2,48456,50000,463,50000,0,0,0,0,0.00,0.00,0.00,0.00
2016-09-26 06:30:00,2,49898,0,0.00,2,2,0,2,49185,50000,245,50000,0,0,0,0,0.00,0.00,0.00,0.00
2016-09-26 06:40:00,2,49093,0,0.00,2,2,0,2,43073,50000,2033,50000,0,0,0,0,0.00,0.00,0.00,0.00
2016-09-26 06:50:00,2,50000,0,0.00,2,2,0,2,50000,50000,0,50000,0,0,0,0,0.00,0.00,0.00,0.00
2016-09-26 07:00:00,2,49843,0,0.00,2,2,0,2,48983,50000,322,50000,0,0,0,0,0.00,0.00,0.00,0.00
2016-09-26 07:10:00,2,49585,0,0.00,2,2,0,2,47780,50000,739,50000,0,0,0,0,0.00,0.00,0.00,0.00
2016-09-26 07:20:00,2,49701,0,0.00,2,2,0,2,47836,50000,669,50000,0,0,0,0,0.00,0.00,0.00,0.00
2016-09-26 07:30:00,2,49998,0,0.00,2,2,0,2,49979,50000,6,50000,0,0,0,0,0.00,0.00,0.00,0.00
2016-09-26 07:40:00,2,50000,0,0.00,2,2,0,2,50000,50000,0,50000,0,0,0,0,0.00,0.00,0.00,0.00
2016-09-26 07:50:00,2,49811,0,0.00,2,2,0,2,48111,50000,567,50000,0,0,0,0,0.00,0.00,0.00,0.00
2016-09-26 08:00:00,2,50000,0,0.00,2,2,0,2,50000,50000,0,50000,0,0,0,0,0.00,0.00,0.00,0.00
2016-09-26 08:10:00,2,49744,0,0.00,2,2,0,2,47438,50000,769,50000,0,0,0,0,0.00,0.00,0.00,0.00
2016-09-26 08:20:00,2,49976,0,0.00,2,2,0,2,49757,50000,73,50000,0,0,0,0,0.00,0.00,0.00,0.00
2016-09-26 08:30:00,2,50000,0,0.00,2,2,0,2,50000,50000,0,50000,0,0,0,0,0.00,0.00,0.00,0.00
2016-09-26 08:40:00,2,50000,0,0.00,2,2,0,2,50000,50000,0,50000,0,0,0,0,0.00,0.00,0.00,0.00
2016-09-26 08:50:00,2,50000,0,0.00,2,2,0,2,50000,50000,0,50000,0,0,0,0,0.00,0.00,0.00,0.00
2016-09-26 09:00:00,2,50000,0,0.00,2,2,0,2,50000,50000,0,50000,0,0,0,0,0.00,0.00,0.00,0.00
2016-09-26 09:10:00,2,50000,0,0.00,2,2,0,2,50000,50000,0,50000,0,0,0,0,0.00,0.00,0.00,0.00
2016-09-26 09:20:00,2,50000,0,0.00,2,2,0,2,50000,50000,0,50000,0,0,0,0,0.00,0.00,0.00,0.00
2016-09-26 09:30:00,2,50000,0,0.00,2,2,0,2,50000,50000,0,50000,0,0,0,0,0.00,0.00,0.00,0.00
2016-09-26 09:40:00,2,50000,0,0.00,2,2,0,2,50000,50000,0,50000,0,0,0,0,0.00,0.00,0.00,0.00
2016-09-26 09:50:00,2,50000,0,0.00,2,2,0,2,50000,50000,0,50000,0,0,0,0,0.00,0.00,0.00,0.00
2016-09-26 10:00:00,2,50000,0,0.00,2,2,0,2,50000,50000,0,50000,0,0,0,0,0.00,0.00,0.00,0.00
2016-09-26 10:10:00,2,50000,0,0.00,2,2,0,2,50000,50000,0,50000,0,0,0,0,0.00,0.00,0.00,0.00
2016-09-26 10:20:00,2,50000,0,0.00,2,2,0,2,50000,50000,0,50000,0,0,0,0,0.00,0.00,0.00,0.00
2016-09-26 10:30:00,2,50000,0,0.00,2,2,0,2,50000,50000,0,50000,0,0,0,0,0.00,0.00,0.00,0.00
2016-09-26 10:40:00,2,50000,0,0.00,2,2,0,2,50000,50000,0,50000,0,0,0,0,0.00,0.00,0.00,0.00
2016-09-26 10:50:00,2,50000,0,0.00,2,2,0,2,50000,50000,0,50000,0,0,0,0,0.00,0.00,0.00,0.00
2016-09-26 11:00:00,2,50000,0,0.00,2,2,0,2,50000,50000,0,50000,0,0,0,0,0.00,0.00,0.00,0.00
2016-09-26 11:10:00,2,50000,0,0.00,2,2,0,2,50000,50000,0,50000,0,0,0,0,0.00,0.00,0.00,0.00
2016-09-26 11:20:00,2,50000,0,0.00,2,2,0,2,50000,50000,0,50000,0,0,0,0,0.00,0.00,0.00,0.00
2016-09-26 11:30:00,2,50000,0,0.00,2,2,0,2,50000,50000,0,50000,0,0,0,0,0.00,0.00,0.00,0.00
2016-09-26 11:40:00,2,50000,0,0.00,2,2,0,2,50000,50000,0,50000,0,0,0,0,0.00,0.00,0.00,0.00
2016-09-26 11:50:00,2,49821,0,0.00,2,2,0,2,48209,50000,537,50000,0,0,0,0,0.00,0.00,0.00,0.00
2016-09-26 12:00:00,2,50000,0,0.00,2,2,0,2,50000,50000,0,50000,0,0,0,0,0.00,0.00,0.00,0.00
2016-09-26 12:10:00,2,49745,0,0.00,2,2,0,2,48503,50000,519,50000,0,0,0,0,0.00,0.00,0.00,0.00
2016-09-26 12:20:00,2,49952,0,0.00,2,2,0,2,49521,50000,144,50000,0,0,0,0,0.00,0.00,0.00,0.00
2016-09-26 12:30:00,2,50000,0,0.00,2,2,0,2,50000,50000,0,50000,0,0,0,0,0.00,0.00,0.00,0.00
2016-09-26 12:40:00,2,45202,0,0.00,2,2,0,2,37079,50000,5588,49069,0,0,0,0,0.00,0.00,0.00,0.00
2016-09-26 12:50:00,2,40360,0,0.00,2,2,0,2,20630,50000,10640,47337,0,0,0,0,0.00,0.00,0.00,0.00
2016-09-26 13:00:00,2,28816,0,0.00,2,2,0,2,20571,48219,9288,25152,0,0,0,0,0.00,0.00,0.00,0.00
2016-09-26 13:10:00,2,50000,0,0.00,2,2,0,2,50000,50000,0,50000,0,0,0,0,0.00,0.00,0.00,0.00
2016-09-26 13:20:00,2,49178,0,0.00,2,2,0,2,44577,50000,1676,50000,0,0,0,0,0.00,0.00,0.00,0.00
2016-09-26 13:30:00,2,50000,0,0.00,2,2,0,2,50000,50000,0,50000,0,0,0,0,0.00,0.00,0.00,0.00
2016-09-26 13:40:00,2,50000,0,0.00,2,2,0,2,50000,50000,0,50000,0,0,0,0,0.00,0.00,0.00,0.00
2016-09-26 13:50:00,2,50000,0,0.00,2,2,0,2,50000,50000,0,50000,0,0,0,0,0.00,0.00,0.00,0.00
2016-09-26 14:00:00,2,50000,0,0.00,2,2,0,2,50000,50000,0,50000,0,0,0,0,0.00,0.00,0.00,0.00
2016-09-26 14:10:00,2,50000,0,0.00,2,2,0,2,50000,50000,0,50000,0,0,0,0,0.00,0.00,0.00,0.00
2016-09-26 14:20:00,2,50000,0,0.00,2,2,0,2,50000,50000,0,50000,0,0,0,0,0.00,0.00,0.00,0.00
2016-09-26 14:30:00,2,50000,0,0.00,2,2,0,2,50000,50000,0,50000,0,0,0,0,0.00,0.00,0.00,0.00
2016-09-26 14:40:00,2,49994,0,0.00,2,2,0,2,49935,50000,20,50000,0,0,0,0,0.00,0.00,0.00,0.00
2016-09-26 14:50:00,2,50000,0,0.00,2,2,0,2,50000,50000,0,50000,0,0,0,0,0.00,0.00,0.00,0.00
2016-09-26 15:00:00,2,50000,0,0.00,2,2,0,2,50000,50000,0,50000,0,0,0,0,0.00,0.00,0.00,0.00
2016-09-26 15:10:00,2,50000,0,0.00,2,2,0,2,50000,50000,0,50000,0,0,0,0,0.00,0.00,0.00,0.00
2016-09-26 15:20:00,2,49782,0,0.00,2,2,0,2,47818,50000,655,50000,0,0,0,0,0.00,0.00,0.00,0.00
2016-09-26 15:30:00,2,50000,0,0.00,2,2,0,2,50000,50000,0,50000,0,0,0,0,0.00,0.00,0.00,0.00
2016-09-26 15:40:00,2,50000,0,0.00,2,2,0,2,50000,50000,0,50000,0,0,0,0,0.00,0.00,0.00,0.00
2016-09-26 15:50:00,2,50000,0,0.00,2,2,0,2,50000,50000,0,50000,0,0,0,0,0.00,0.00,0.00,0.00
2016-09-26 16:00:00,2,50000,0,0.00,2,2,0,2,50000,50000,0,50000,0,0,0,0,0.00,0.00,0.00,0.00
2016-09-26 16:10:00,2,50000,0,0.00,2,2,0,2,50000,50000,0,50000,0,0,0,0,0.00,0.00,0.00,0.00
2016-09-26 16:20:00,2,50000,0,0.00,2,2,0,2,50000,50000,0,50000,0,0,0,0,0.00,0.00,0.00,0.00
2016-09-26 16:30:00,2,50000,0,0.00,2,2,0,2,50000,50000,0,50000,0,0,0,0,0.00,0.00,0.00,0.00
2016-09-26 16:40:00,2,50000,0,0.00,2,2,0,2,50000,50000,0,50000,0,0,0,0,0.00,0.00,0.00,0.00
2016-09-26 16:50:00,2,50000,0,0.00,2,2,0,2,50000,50000,0,50000,0,0,0,0,0.00,0.00,0.00,0.00
2016-09-26 17:00:00,2,50000,0,0.00,2,2,0,2,50000,50000,0,50000,0,0,0,0,0.00,0.00,0.00,0.00
2016-09-26 17:10:00,2,50000,0,0.00,2,2,0,2,50000,50000,0,50000,0,0,0,0,0.00,0.00,0.00,0.00
2016-09-26 17:20:00,2,50000,0,0.00,2,2,0,2,50000,50000,0,50000,0,0,0,0,0.00,0.00,0.00,0.00
2016-09-26 17:30:00,2,50000,0,0.00,2,2,0,2,50000,50000,0,50000,0,0,0,0,0.00,0.00,0.00,0.00
2016-09-26 17:40:00,2,50000,0,0.00,2,2,0,2,50000,50000,0,50000,0,0,0,0,0.00,0.00,0.00,0.00
2016-09-26 17:50:00,2,50000,0,0.00,2,2,0,2,50000,50000,0,50000,0,0,0,0,0.00,0.00,0.00,0.00
2016-09-26 18:00:00,2,50000,0,0.00,2,2,0,2,50000,50000,0,50000,0,0,0,0,0.00,0.00,0.00,0.00
2016-09-26 18:10:00,2,50000,0,0.00,2,2,0,2,50000,50000,0,50000,0,0,0,0,0.00,0.00,0.00,0.00
2016-09-26 18:20:00,2,50000,0,0.00,2,2,0,2,50000,50000,0,50000,0,0,0,0,0.00,0.00,0.00,0.00
2016-09-26 18:30:00,2,50000,0,0.00,2,2,0,2,50000,50000,0,50000,0,0,0,0,0.00,0.00,0.00,0.00
2016-09-26 18:40:00,2,50000,0,0.00,2,2,0,2,50000,50000,0,50000,0,0,0,0,0.00,0.00,0.00,0.00
2016-09-26 18:50:00,2,47347,0,0.00,2,2,0,2,39490,50000,3893,50000,0,0,0,0,0.00,0.00,0.00,0.00
2016-09-26 19:00:00,2,9799,42,0.35,2,2,0,2,3722,20808,4548,10034,0,77,31,41,0.00,1.95,0.58,0.08
2016-09-26 19:10:00,2,19004,51,0.03,2,2,0,2,8759,36608,8529,15888,41,77,15,41,0.00,0.10,0.03,0.00
2016-09-26 19:20:00,2,3747,73,0.73,2,2,0,2,1707,6715,1929,2687,71,77,3,71,0.00,1.75,0.58,0.83
2016-09-26 19:30:00,2,12054,64,0.36,2,2,0,2,2613,44021,13686,5461,0,71,21,71,0.00,1.00,0.33,0.35
2016-09-26 19:40:00,2,18331,57,0.07,2,2,0,2,4747,48334,15968,10808,0,71,28,71,0.00,0.20,0.09,0.03
2016-09-26 19:50:00,2,8014,71,0.11,2,2,0,2,4710,11399,2296,7808,71,71,0,71,0.00,0.25,0.08,0.10
2016-09-26 20:00:00,2,4682,73,0.09,2,2,0,2,3104,9314,1638,4192,71,77,3,71,0.00,0.30,0.08,0.05
2016-09-26 20:10:00,2,5440,77,0.04,2,2,0,2,3351,7065,1094,5769,77,77,0,77,0.00,0.05,0.02,0.05
2016-09-26 20:20:00,2,9109,75,0.00,2,2,0,2,8176,10336,662,9016,71,77,3,77,0.00,0.00,0.00,0.00
2016-09-26 20:30:00,2,23945,67,0.00,2,2,0,2,9419,35859,9432,24394,0,77,22,74,0.00,0.00,0.00,0.00
2016-09-26 20:40:00,2,29838,0,0.00,2,2,0,2,22455,43363,7133,26894,0,0,0,0,0.00,0.00,0.00,0.00
2016-09-26 20:50:00,2,45466,0,0.00,2,2,0,2,37141,50000,4671,46552,0,0,0,0,0.00,0.00,0.00,0.00
2016-09-26 21:00:00,2,50000,0,0.00,2,2,0,2,50000,50000,0,50000,0,0,0,0,0.00,0.00,0.00,0.00
2016-09-26 21:10:00,2,48341,0,0.00,2,2,0,2,42819,50000,2600,50000,0,0,0,0,0.00,0.00,0.00,0.00
2016-09-26 21:20:00,2,41573,0,0.00,2,2,0,2,29511,50000,6276,42537,0,0,0,0,0.00,0.00,0.00,0.00
2016-09-26 21:30:00,2,46593,0,0.00,2,2,0,2,37911,50000,4307,49720,0,0,0,0,0.00,0.00,0.00,0.00
2016-09-26 21:40:00,2,50000,0,0.00,2,2,0,2,50000,50000,0,50000,0,0,0,0,0.00,0.00,0.00,0.00
2016-09-26 21:50:00,2,50000,0,0.00,2,2,0,2,50000,50000,0,50000,0,0,0,0,0.00,0.00,0.00,0.00
2016-09-26 22:00:00,2,50000,0,0.00,2,2,0,2,50000,50000,0,50000,0,0,0,0,0.00,0.00,0.00,0.00
2016-09-26 22:10:00,2,28197,23,0.00,2,2,0,2,12364,44026,12918,23856,0,71,25,20,0.00,0.00,0.00,0.00
2016-09-26 22:20:00,2,18468,73,0.01,2,2,0,2,14498,23608,2713,18973,71,77,3,71,0.00,0.05,0.02,0.00
2016-09-26 22:30:00,2,9096,71,0.81,2,2,0,2,669,13903,4699,10567,71,71,0,71,0.00,5.30,1.56,0.12
2016-09-26 22:40:00,2,1003,71,5.51,2,2,0,2,404,2052,613,688,71,71,0,71,1.50,11.25,3.12,5.23
2016-09-26 22:50:00,2,9630,71,0.51,2,2,0,2,3678,25130,8171,4760,71,71,0,71,0.00,1.40,0.41,0.55
2016-09-26 23:00:00,2,35601,51,0.01,2,2,0,2,20831,50000,12328,34994,0,77,33,71,0.00,0.05,0.02,0.00
2016-09-26 23:10:00,2,49178,0,0.00,2,2,0,2,43859,50000,1804,50000,0,0,0,0,0.00,0.00,0.00,0.00
2016-09-26 23:20:00,2,49734,0,0.00,2,2,0,2,47679,50000,692,50000,0,0,0,0,0.00,0.00,0.00,0.00
2016-09-26 23:30:00,2,13581,50,4.10,2,2,0,2,229,50000,18910,1244,0,71,33,71,0.00,13.50,4.98,1.85
2016-09-26 23:40:00,2,5868,71,4.71,2,2,0,2,283,18792,6289,2828,71,72,0,71,0.00,10.85,4.70,3.35
2016-09-26 23:50:00,2,13922,72,0.15,2,2,0,2,4650,39961,11594,7852,71,77,2,71,0.00,0.40,0.14,0.12
